Time,TemperatureF,DewpointF,PressureIn,WindDirection,WindDirectionDegrees,WindSpeedMPH,WindSpeedGustMPH,Humidity,HourlyPrecipIn,Conditions,Clouds,dailyrainin,SoftwareType,DateUTC
2013-01-26 00:02:00,49.3,43.0,30.16,NNW,347,0.0,5.0,80,0.00,,,0.00,weatherlink.com 1.10,2013-01-26 06:02:00,
2013-01-26 00:17:00,49.4,44.0,30.16,North,354,4.0,5.0,80,0.00,,,0.00,weatherlink.com 1.10,2013-01-26 06:17:00,
2013-01-26 00:32:00,49.6,43.0,30.16,North,353,2.0,5.0,79,0.00,,,0.00,weatherlink.com 1.10,2013-01-26 06:32:00,
2013-01-26 00:47:00,49.7,43.0,30.16,North,10,3.0,5.0,79,0.00,,,0.00,weatherlink.com 1.10,2013-01-26 06:47:00,
2013-01-26 01:02:00,49.7,43.0,30.16,North,359,5.0,6.0,79,0.00,,,0.00,weatherlink.com 1.10,2013-01-26 07:02:00,
2013-01-26 01:18:00,49.5,43.0,30.15,North,349,3.0,4.0,79,0.00,,,0.00,weatherlink.com 1.10,2013-01-26 07:18:00,
2013-01-26 01:32:00,49.3,43.0,30.14,North,349,3.0,3.0,80,0.00,,,0.00,weatherlink.com 1.10,2013-01-26 07:32:00,
2013-01-26 01:47:00,49.5,44.0,30.15,North,349,1.0,4.0,80,0.00,,,0.00,weatherlink.com 1.10,2013-01-26 07:47:00,
2013-01-26 02:02:00,49.5,44.0,30.16,North,10,1.0,4.0,80,0.00,,,0.00,weatherlink.com 1.10,2013-01-26 08:02:00,
2013-01-26 02:17:00,49.6,44.0,30.16,North,8,2.0,4.0,80,0.00,,,0.00,weatherlink.com 1.10,2013-01-26 08:17:00,
2013-01-26 02:32:00,49.5,44.0,30.15,North,8,2.0,4.0,81,0.00,,,0.00,weatherlink.com 1.10,2013-01-26 08:32:00,
2013-01-26 03:02:00,49.3,44.0,30.14,North,10,1.0,5.0,82,0.00,,,0.00,weatherlink.com 1.10,2013-01-26 09:02:00,
2013-01-26 03:17:00,49.2,44.0,30.14,NNE,33,4.0,6.0,82,0.00,,,0.00,weatherlink.com 1.10,2013-01-26 09:17:00,
2013-01-26 03:33:00,49.1,44.0,30.14,North,353,2.0,7.0,83,0.00,,,0.00,weatherlink.com 1.10,2013-01-26 09:33:00,
2013-01-26 03:48:00,49.1,44.0,30.14,North,6,2.0,6.0,83,0.00,,,0.00,weatherlink.com 1.10,2013-01-26 09:48:00,
2013-01-26 04:03:00,49.1,45.0,30.14,NNE,14,2.0,6.0,85,0.00,,,0.00,weatherlink.com 1.10,2013-01-26 10:03:00,
2013-01-26 04:18:00,48.6,45.0,30.14,NNE,28,4.0,6.0,86,0.00,,,0.00,weatherlink.com 1.10,2013-01-26 10:18:00,
2013-01-26 04:33:00,47.9,45.0,30.14,NNE,23,2.0,3.0,89,0.00,,,0.00,weatherlink.com 1.10,2013-01-26 10:33:00,
2013-01-26 04:48:00,47.8,45.0,30.13,NNE,23,2.0,4.0,89,0.00,,,0.00,weatherlink.com 1.10,2013-01-26 10:48:00,
2013-01-26 05:03:00,47.7,45.0,30.13,NNE,23,3.0,5.0,89,0.00,,,0.00,weatherlink.com 1.10,2013-01-26 11:03:00,
2013-01-26 05:18:00,47.6,45.0,30.13,NNE,23,1.0,4.0,90,0.00,,,0.00,weatherlink.com 1.10,2013-01-26 11:18:00,
2013-01-26 05:33:00,47.5,45.0,30.14,NNE,23,0.0,3.0,90,0.00,,,0.00,weatherlink.com 1.10,2013-01-26 11:33:00,
2013-01-26 05:49:00,47.5,45.0,30.14,NNE,23,0.0,3.0,91,0.00,,,0.00,weatherlink.com 1.10,2013-01-26 11:49:00,
2013-01-26 06:03:00,47.4,45.0,30.14,NNE,23,1.0,4.0,91,0.00,,,0.00,weatherlink.com 1.10,2013-01-26 12:03:00,
2013-01-26 06:18:00,47.2,45.0,30.15,NNE,23,2.0,4.0,92,0.00,,,0.00,weatherlink.com 1.10,2013-01-26 12:18:00,
2013-01-26 06:33:00,47.2,45.0,30.15,NNE,23,1.0,2.0,93,0.00,,,0.00,weatherlink.com 1.10,2013-01-26 12:33:00,
2013-01-26 06:49:00,47.2,45.0,30.15,NNE,23,2.0,3.0,93,0.00,,,0.00,weatherlink.com 1.10,2013-01-26 12:49:00,
2013-01-26 07:03:00,47.2,45.0,30.16,NNE,23,1.0,2.0,93,0.00,,,0.00,weatherlink.com 1.10,2013-01-26 13:03:00,
2013-01-26 07:18:00,47.2,46.0,30.16,NNE,23,0.0,3.0,94,0.00,,,0.00,weatherlink.com 1.10,2013-01-26 13:18:00,
2013-01-26 07:33:00,47.3,46.0,30.16,NNE,23,1.0,3.0,94,0.00,,,0.00,weatherlink.com 1.10,2013-01-26 13:33:00,
2013-01-26 07:48:00,47.3,46.0,30.16,NNE,23,0.0,2.0,94,0.00,,,0.00,weatherlink.com 1.10,2013-01-26 13:48:00,
2013-01-26 08:03:00,47.6,46.0,30.17,NNE,23,2.0,3.0,94,0.00,,,0.00,weatherlink.com 1.10,2013-01-26 14:03:00,
2013-01-26 08:18:00,47.6,46.0,30.17,NNE,23,2.0,2.0,94,0.00,,,0.00,weatherlink.com 1.10,2013-01-26 14:18:00,
2013-01-26 08:33:00,47.9,46.0,30.18,NNE,23,3.0,4.0,94,0.00,,,0.00,weatherlink.com 1.10,2013-01-26 14:33:00,
2013-01-26 08:48:00,47.8,46.0,30.18,NNE,23,2.0,4.0,94,0.00,,,0.00,weatherlink.com 1.10,2013-01-26 14:48:00,
2013-01-26 09:03:00,48.2,46.0,30.18,North,4,3.0,6.0,93,0.00,,,0.00,weatherlink.com 1.10,2013-01-26 15:03:00,
2013-01-26 09:18:00,48.7,47.0,30.19,North,1,2.0,4.0,92,0.00,,,0.00,weatherlink.com 1.10,2013-01-26 15:18:00,
2013-01-26 09:33:00,49.1,47.0,30.19,North,1,1.0,4.0,92,0.00,,,0.00,weatherlink.com 1.10,2013-01-26 15:33:00,
2013-01-26 09:48:00,49.6,47.0,30.18,North,1,1.0,3.0,91,0.00,,,0.00,weatherlink.com 1.10,2013-01-26 15:48:00,
2013-01-26 10:03:00,49.6,47.0,30.19,North,1,0.0,3.0,91,0.00,,,0.00,weatherlink.com 1.10,2013-01-26 16:03:00,
2013-01-26 10:18:00,49.9,47.0,30.18,North,1,1.0,2.0,91,0.00,,,0.00,weatherlink.com 1.10,2013-01-26 16:18:00,
2013-01-26 10:33:00,50.8,48.0,30.18,North,1,2.0,3.0,90,0.00,,,0.00,weatherlink.com 1.10,2013-01-26 16:33:00,
2013-01-26 10:48:00,51.2,48.0,30.19,ENE,62,3.0,4.0,89,0.00,,,0.00,weatherlink.com 1.10,2013-01-26 16:48:00,
2013-01-26 11:03:00,51.5,48.0,30.19,ENE,62,2.0,4.0,89,0.00,,,0.00,weatherlink.com 1.10,2013-01-26 17:03:00,
2013-01-26 11:18:00,52.5,49.0,30.18,ENE,70,0.0,4.0,88,0.00,,,0.00,weatherlink.com 1.10,2013-01-26 17:18:00,
2013-01-26 11:33:00,52.4,49.0,30.18,ENE,70,1.0,3.0,87,0.00,,,0.00,weatherlink.com 1.10,2013-01-26 17:33:00,
2013-01-26 11:48:00,53.0,49.0,30.17,ENE,77,2.0,4.0,86,0.00,,,0.00,weatherlink.com 1.10,2013-01-26 17:48:00,
2013-01-26 12:04:00,53.6,50.0,30.17,ENE,77,0.0,3.0,86,0.00,,,0.00,weatherlink.com 1.10,2013-01-26 18:04:00,
2013-01-26 12:18:00,54.3,50.0,30.16,ENE,77,0.0,3.0,85,0.00,,,0.00,weatherlink.com 1.10,2013-01-26 18:18:00,
2013-01-26 12:34:00,55.8,51.0,30.15,East,79,0.0,4.0,83,0.00,,,0.00,weatherlink.com 1.10,2013-01-26 18:34:00,
2013-01-26 12:49:00,56.3,51.0,30.14,East,79,0.0,4.0,83,0.00,,,0.00,weatherlink.com 1.10,2013-01-26 18:49:00,
2013-01-26 13:04:00,56.8,51.0,30.14,East,79,0.0,3.0,82,0.00,,,0.00,weatherlink.com 1.10,2013-01-26 19:04:00,
2013-01-26 13:18:00,56.8,51.0,30.13,East,85,3.0,4.0,82,0.00,,,0.00,weatherlink.com 1.10,2013-01-26 19:18:00,
2013-01-26 13:33:00,57.3,52.0,30.12,East,85,2.0,4.0,81,0.00,,,0.00,weatherlink.com 1.10,2013-01-26 19:33:00,
2013-01-26 13:49:00,58.0,52.0,30.12,ESE,116,2.0,3.0,81,0.00,,,0.00,weatherlink.com 1.10,2013-01-26 19:49:00,
2013-01-26 14:04:00,57.9,52.0,30.12,ESE,106,2.0,7.0,81,0.00,,,0.00,weatherlink.com 1.10,2013-01-26 20:04:00,
2013-01-26 14:19:00,58.7,53.0,30.11,East,100,4.0,5.0,80,0.00,,,0.00,weatherlink.com 1.10,2013-01-26 20:19:00,
2013-01-26 14:34:00,58.7,53.0,30.11,ESE,106,3.0,5.0,80,0.00,,,0.00,weatherlink.com 1.10,2013-01-26 20:34:00,
2013-01-26 14:49:00,58.8,53.0,30.11,SE,137,3.0,8.0,82,0.00,,,0.00,weatherlink.com 1.10,2013-01-26 20:49:00,
2013-01-26 15:04:00,58.5,53.0,30.10,SE,134,3.0,8.0,82,0.00,,,0.00,weatherlink.com 1.10,2013-01-26 21:04:00,
2013-01-26 15:19:00,58.8,54.0,30.10,ESE,111,3.0,8.0,83,0.00,,,0.00,weatherlink.com 1.10,2013-01-26 21:19:00,
2013-01-26 15:34:00,58.6,53.0,30.09,ESE,118,5.0,7.0,82,0.00,,,0.00,weatherlink.com 1.10,2013-01-26 21:34:00,
2013-01-26 15:49:00,58.8,54.0,30.09,SE,124,5.0,9.0,83,0.00,,,0.00,weatherlink.com 1.10,2013-01-26 21:49:00,
2013-01-26 16:04:00,58.6,54.0,30.09,SE,126,5.0,7.0,83,0.00,,,0.00,weatherlink.com 1.10,2013-01-26 22:04:00,
2013-01-26 16:19:00,58.3,54.0,30.09,ESE,120,2.0,7.0,84,0.00,,,0.00,weatherlink.com 1.10,2013-01-26 22:19:00,
2013-01-26 16:34:00,58.6,54.0,30.09,ESE,118,2.0,6.0,84,0.00,,,0.00,weatherlink.com 1.10,2013-01-26 22:34:00,
2013-01-26 16:49:00,58.9,54.0,30.09,SE,124,3.0,6.0,84,0.00,,,0.00,weatherlink.com 1.10,2013-01-26 22:49:00,
2013-01-26 17:04:00,58.7,54.0,30.09,SE,124,5.0,5.0,83,0.00,,,0.00,weatherlink.com 1.10,2013-01-26 23:04:00,
2013-01-26 17:19:00,58.5,54.0,30.09,SE,124,2.0,5.0,84,0.00,,,0.00,weatherlink.com 1.10,2013-01-26 23:19:00,
2013-01-26 17:34:00,58.5,54.0,30.09,SE,125,2.0,6.0,85,0.00,,,0.00,weatherlink.com 1.10,2013-01-26 23:34:00,
2013-01-26 17:49:00,58.1,54.0,30.09,SE,125,2.0,5.0,85,0.00,,,0.00,weatherlink.com 1.10,2013-01-26 23:49:00,
2013-01-26 18:04:00,57.9,54.0,30.09,SE,124,3.0,6.0,86,0.00,,,0.00,weatherlink.com 1.10,2013-01-27 00:04:00,
2013-01-26 18:19:00,57.5,54.0,30.09,SE,128,3.0,7.0,87,0.00,,,0.00,weatherlink.com 1.10,2013-01-27 00:19:00,
2013-01-26 18:34:00,57.3,54.0,30.09,ESE,122,2.0,7.0,88,0.00,,,0.00,weatherlink.com 1.10,2013-01-27 00:34:00,
2013-01-26 18:49:00,57.2,54.0,30.10,ESE,122,3.0,5.0,89,0.00,,,0.00,weatherlink.com 1.10,2013-01-27 00:49:00,
2013-01-26 19:04:00,57.1,54.0,30.10,ESE,122,3.0,5.0,89,0.00,,,0.00,weatherlink.com 1.10,2013-01-27 01:04:00,
2013-01-26 19:19:00,57.0,54.0,30.10,ESE,122,2.0,5.0,89,0.00,,,0.00,weatherlink.com 1.10,2013-01-27 01:19:00,
2013-01-26 19:34:00,56.9,54.0,30.10,ESE,122,3.0,5.0,90,0.00,,,0.00,weatherlink.com 1.10,2013-01-27 01:34:00,
2013-01-26 19:49:00,56.7,54.0,30.11,ESE,119,3.0,6.0,91,0.00,,,0.00,weatherlink.com 1.10,2013-01-27 01:49:00,
2013-01-26 20:04:00,56.7,54.0,30.11,ESE,117,6.0,7.0,91,0.00,,,0.00,weatherlink.com 1.10,2013-01-27 02:04:00,
2013-01-26 20:19:00,56.5,54.0,30.11,ESE,118,0.0,5.0,91,0.00,,,0.00,weatherlink.com 1.10,2013-01-27 02:19:00,
2013-01-26 20:34:00,55.8,53.0,30.11,ESE,118,0.0,3.0,91,0.00,,,0.00,weatherlink.com 1.10,2013-01-27 02:34:00,
2013-01-26 20:49:00,54.6,52.0,30.11,ESE,118,1.0,2.0,92,0.00,,,0.00,weatherlink.com 1.10,2013-01-27 02:49:00,
2013-01-26 21:04:00,53.9,52.0,30.10,ESE,118,1.0,3.0,93,0.00,,,0.00,weatherlink.com 1.10,2013-01-27 03:04:00,
2013-01-26 21:19:00,53.3,51.0,30.10,ESE,118,3.0,6.0,93,0.00,,,0.00,weatherlink.com 1.10,2013-01-27 03:19:00,
2013-01-26 21:34:00,52.9,51.0,30.10,ESE,118,2.0,6.0,93,0.00,,,0.00,weatherlink.com 1.10,2013-01-27 03:34:00,
2013-01-26 21:49:00,52.6,51.0,30.11,ESE,118,5.0,5.0,93,0.00,,,0.00,weatherlink.com 1.10,2013-01-27 03:49:00,
2013-01-26 22:04:00,52.6,51.0,30.10,ESE,118,1.0,5.0,93,0.00,,,0.00,weatherlink.com 1.10,2013-01-27 04:04:00,
2013-01-26 22:19:00,52.7,51.0,30.10,SE,133,4.0,8.0,94,0.00,,,0.00,weatherlink.com 1.10,2013-01-27 04:19:00,
2013-01-26 22:35:00,52.7,51.0,30.10,SE,131,3.0,7.0,93,0.00,,,0.00,weatherlink.com 1.10,2013-01-27 04:35:00,
2013-01-26 22:49:00,52.7,51.0,30.10,SE,134,3.0,7.0,94,0.00,,,0.00,weatherlink.com 1.10,2013-01-27 04:49:00,
2013-01-26 23:04:00,52.8,51.0,30.10,SE,143,4.0,7.0,94,0.00,,,0.00,weatherlink.com 1.10,2013-01-27 05:04:00,
2013-01-26 23:19:00,52.8,51.0,30.10,SE,131,5.0,8.0,94,0.00,,,0.00,weatherlink.com 1.10,2013-01-27 05:19:00,
2013-01-26 23:34:00,53.0,51.0,30.10,SSE,168,5.0,8.0,94,0.00,,,0.00,weatherlink.com 1.10,2013-01-27 05:34:00,
2013-01-26 23:49:00,53.0,51.0,30.09,SSE,148,3.0,8.0,94,0.00,,,0.00,weatherlink.com 1.10,2013-01-27 05:49:00,